{"data":{"norad_id":56827,"epoch":"2026-05-25T00:45:39.299040Z","epoch_age_seconds":72472,"freshness":"FRESH","line1":"1 56827U 23079E   26145.03170485 -.00000120  00000+0  51528-5 0  9994","line2":"2 56827  43.0040  35.9159 0001277 254.7961 105.2750 15.27580340164561","mean_motion":15.2758034,"eccentricity":0.0001277,"inclination_deg":43.004,"raan_deg":35.9159,"arg_perigee_deg":254.7961,"mean_anomaly_deg":105.275,"bstar":5.1528e-6,"rev_number":16456,"period_min":94.266727732304,"perigee_km":482.17190462307,"apogee_km":483.92425129198,"semimajor_km":6861.1850779575,"source":"CELESTRAK","updated_at":"2026-05-25T13:38:18.162756Z"}}